Regional Weather Roundup
Issued by NWS Sioux Falls, SD

Home | Current Version | Previous Version | Graphics & Text | Print | Product List | Glossary On
Versions: 1 2 3 4 5 6 7 8 9 10 11 12 13 14 15 16 17 18 19 20 21 22 23 24 25 26 27 28 29 30 31 32 33 34 35 36 37 38 39 40 41 42 43 44 45 46 47 48 49 50
000
ASUS43 KFSD 261602
RWRFSD

WEATHER ROUNDUP FOR SE SOUTH DAKOTA/SW MINNESOTA/NW IOWA
NATIONAL WEATHER SERVICE SIOUX FALLS SD
1100 AM CDT TUE MAY 26 2015

NOTE: "FAIR" INDICATES FEW OR NO CLOUDS BELOW 12,000 FEET WITH NO
SIGNIFICANT WEATHER AND OR OBSTRUCTIONS TO VISIBILITY.


SDZ038>040-050-052>070-261700-
SOUTHEAST SOUTH DAKOTA

CITY           SKY/WX    TMP DP  RH WIND       PRES   REMARKS
BROOKINGS      CLOUDY    59  52  77 N9G16     29.85S
CHAMBERLAIN    NOT AVBL
HURON          MOSUNNY   70  54  56 N12       29.86F
MADISON        FAIR      57  57 100 NE13      29.85F
MITCHELL       PTSUNNY   68  52  56 N17       29.87S
SIOUX FALLS    CLOUDY    57  52  83 N14       29.83S
WINNER         PTSUNNY   65  52  62 N13       29.93F
YANKTON        CLOUDY    57  52  82 N12       29.84R
$$

MNZ071-072-080-081-089-090-097-098-261700-
SOUTHWEST MINNESOTA

CITY           SKY/WX    TMP DP  RH WIND       PRES   REMARKS
FAIRMONT       CLOUDY    57  52  82 NE8       29.79S
JACKSON        DRIZZLE   57  55  94 N10       29.80S
LUVERNE        CLOUDY    55  52  88 N7        29.82S
MARSHALL       CLOUDY    55  52  88 NE9       29.82S
MONTEVIDEO     CLOUDY    61  54  77 E9        29.83F
REDWOOD FALLS  LGT RAIN  57  55  93 N5        29.81S FOG
TRACY          LGT RAIN  56  55  96 N8        29.82F
WINDOM         LGT RAIN  57  55  94 N10       29.80S
WORTHINGTON    CLOUDY    57  52  82 N10       29.81S
$$

IAZ001>003-012>014-020>022-031-032-NEZ013-014-SDZ071-261700-
NORTHWEST IOWA

CITY           SKY/WX    TMP DP  RH WIND       PRES   REMARKS
DENISON        LGT RAIN  63  63 100 SW6       29.77S
ESTHERVILLE    LGT RAIN  57  56  96 NE9       29.78F FOG
SIOUX CITY     CLOUDY    62  58  86 N10       29.79R FOG
SPENCER        LGT RAIN  59  57  93 N10       29.78F
$$

ABBREVIATIONS USED IN REMARKS
   TC - TEMPERATURE IN CELSIUS
  WCI - WIND CHILL INDEX
   HX - HEAT INDEX
  VSB - VISIBILITY



USA.gov is the U.S. government's official web portal to all federal, state and local government web resources and services.